カタログに戻る

STARLINK-32319

運用中通信VLEO
NORAD 61528·PAYLOAD·🇺🇸 United States

打ち上げ Oct 15, 2024 から Cape Canaveral Space Force Station

Loading…

次のパス (今後24時間)

TLE

最新Source: CelesTrak SupGP

元期: Sep 15, 2026, 03:10 UTC

1 61528C 24183V   26258.13243056  .00066544  00000+0  21395-2 0  2581
2 61528  53.1595 341.8687 0001098  86.7785 351.1589 15.31674863    15

AllMySatでSTARLINK-32319をリアルタイム追跡

Download on the App Store